QPF
0.01 0.01 0.01 0.00 0.00 0.00 0.00 0.00 0.00 0.00 0.00 0.00 0.00 0.00 0.00 0.00 0.00 0.00 0.00 0.00 0.00 0.00 0.00 0.00 0.00 0.00 0.00 0.00 0.00 0.00 0.00 0.00 0.00 0.00 0.00 0.00 0.01 0.01 0.02 0.01 0.01 0.01 0.01
0.01 0.01 0.01 0.00 0.00 0.00 0.00 0.00 0.00 0.00 0.00 0.00 0.00 0.00 0.00 0.00 0.00 0.00 0.00 0.00 0.00 0.00 0.00 0.00 0.00 0.00 0.00 0.00 0.00 0.00 0.00 0.00 0.00 0.00 0.00 0.00 0.01 0.01 0.01 0.01 0.02 0.03 0.02
0.01 0.01 0.00 0.00 0.00 0.00 0.00 0.00 0.00 0.00 0.00 0.00 0.00 0.00 0.00 0.00 0.00 0.00 0.00 0.00 0.00 0.00 0.00 0.00 0.00 0.00 0.00 0.00 0.00 0.00 0.00 0.00 0.00 0.00 0.00 0.00 0.01 0.01 0.01 0.02 0.02 0.03 0.04
0.01 0.00 0.00 0.00 0.00 0.00 0.01 0.01 0.00 0.00 0.00 0.00 0.00 0.00 0.00 0.00 0.00 0.00 0.00 0.00 0.00 0.00 0.00 0.00 0.00 0.00 0.00 0.00 0.00 0.00 0.00 0.00 0.00 0.00 0.00 0.00 0.00 0.01 0.01 0.01 0.02 0.03 0.04
0.00 0.00 0.00 0.00 0.00 0.00 0.01 0.01 0.01 0.00 0.00 0.00 0.00 0.00 0.00 0.00 0.00 0.00 0.00 0.00 0.00 0.00 0.00 0.00 0.00 0.00 0.00 0.00 0.00 0.00 0.00 0.00 0.00 0.00 0.00 0.00 0.00 0.00 0.01 0.00 0.01 0.02 0.02
0.00 0.00 0.00 0.00 0.00 0.00 0.00 0.01 0.01 0.01 0.00 0.00 0.00 0.00 0.00 0.00 0.00 0.00 0.00 0.00 0.00 0.00 0.00 0.00 0.00 0.00 0.00 0.00 0.00 0.00 0.00 0.00 0.00 0.00 0.00 0.00 0.00 0.00 0.00 0.00 0.01 0.01 0.02
0.00 0.00 0.00 0.00 0.00 0.00 0.00 0.00 0.00 0.00 0.00 0.00 0.00 0.00 0.00 0.00 0.00 0.00 0.00 0.00 0.00 0.00 0.00 0.00 0.00 0.00 0.00 0.00 0.00 0.00 0.00 0.00 0.00 0.00 0.00 0.00 0.00 0.00 0.00 0.00 0.01 0.01 0.01
0.00 0.00 0.00 0.00 0.00 0.00 0.00 0.00 0.00 0.00 0.00 0.00 0.00 0.00 0.00 0.00 0.00 0.00 0.00 0.00 0.00 0.00 0.00 0.00 0.00 0.01 0.01 0.01 0.01 0.01 0.00 0.00 0.00 0.00 0.00 0.00 0.00 0.00 0.00 0.00 0.00 0.01 0.02
0.00 0.00 0.00 0.00 0.00 0.00 0.00 0.00 0.00 0.00 0.00 0.00 0.00 0.00 0.00 0.00 0.00 0.00 0.00 0.00 0.00 0.00 0.00 0.00 0.00 0.00 0.01 0.01 0.01 0.01 0.00 0.00 0.00 0.00 0.00 0.00 0.00 0.00 0.00 0.00 0.00 0.01 0.01
0.00 0.00 0.00 0.00 0.00 0.00 0.00 0.00 0.00 0.00 0.00 0.00 0.00 0.00 0.00 0.00 0.00 0.00 0.00 0.00 0.00 0.00 0.00 0.00 0.00 0.00 0.00 0.01 0.01 0.01 0.01 0.00 0.00 0.00 0.00 0.00 0.00 0.00 0.00 0.00 0.00 0.00 0.00
0.00 0.00 0.00 0.00 0.00 0.00 0.00 0.00 0.00 0.00 0.00 0.00 0.00 0.00 0.00 0.00 0.00 0.00 0.00 0.00 0.00 0.00 0.00 0.00 0.00 0.00 0.00 0.01 0.01 0.01 0.01 0.01 0.00 0.00 0.00 0.00 0.00 0.00 0.00 0.00 0.00 0.00 0.00
0.00 0.00 0.00 0.00 0.00 0.00 0.00 0.00 0.00 0.00 0.00 0.00 0.00 0.00 0.00 0.00 0.00 0.00 0.00 0.00 0.00 0.00 0.00 0.00 0.00 0.00 0.00 0.00 0.01 0.01 0.02 0.01 0.00 0.00 0.00 0.00 0.00 0.00 0.00 0.00 0.00 0.00 0.00
0.00 0.00 0.00 0.00 0.00 0.00 0.00 0.00 0.00 0.00 0.00 0.00 0.00 0.00 0.00 0.00 0.00 0.00 0.00 0.00 0.00 0.00 0.00 0.00 0.00 0.00 0.00 0.00 0.01 0.01 0.02 0.02 0.00 0.00 0.00 0.00 0.00 0.00 0.00 0.00 0.00 0.00 0.00
0.00 0.00 0.00 0.00 0.00 0.00 0.00 0.00 0.00 0.00 0.00 0.00 0.00 0.00 0.00 0.00 0.00 0.00 0.00 0.00 0.00 0.00 0.00 0.00 0.00 0.00 0.00 0.00 0.01 0.02 0.02 0.02 0.00 0.00 0.00 0.00 0.00 0.00 0.00 0.00 0.00 0.00 0.00
0.00 0.00 0.00 0.00 0.00 0.00 0.00 0.00 0.00 0.00 0.00 0.00 0.00 0.00 0.00 0.00 0.00 0.00 0.00 0.00 0.00 0.00 0.00 0.00 0.00 0.00 0.00 0.00 0.01 0.03 0.02 0.01 0.00 0.00 0.00 0.00 0.00 0.00 0.00 0.00 0.00 0.00 0.00
0.00 0.00 0.00 0.00 0.00 0.00 0.00 0.00 0.00 0.00 0.00 0.00 0.00 0.00 0.00 0.00 0.00 0.00 0.00 0.00 0.00 0.00 0.00 0.00 0.00 0.00 0.00 0.00 0.01 0.03 0.02 0.01 0.00 0.00 0.00 0.00 0.00 0.00 0.00 0.00 0.00 0.00 0.00
0.00 0.00 0.00 0.00 0.00 0.00 0.00 0.00 0.00 0.00 0.00 0.00 0.00 0.00 0.00 0.00 0.00 0.00 0.00 0.00 0.00 0.00 0.00 0.00 0.00 0.00 0.00 0.01 0.02 0.03 0.02 0.00 0.00 0.00 0.00 0.00 0.00 0.00 0.00 0.00 0.00 0.00 0.00
0.00 0.00 0.00 0.00 0.00 0.00 0.00 0.00 0.00 0.00 0.00 0.00 0.00 0.00 0.00 0.00 0.00 0.00 0.00 0.00 0.00 0.00 0.00 0.00 0.00 0.00 0.00 0.00 0.01 0.02 0.01 0.00 0.00 0.00 0.00 0.00 0.00 0.00 0.00 0.00 0.00 0.00 0.00
0.00 0.00 0.00 0.00 0.00 0.00 0.00 0.00 0.00 0.00 0.00 0.00 0.00 0.00 0.00 0.00 0.00 0.00 0.00 0.00 0.00 0.00 0.00 0.00 0.00 0.00 0.00 0.00 0.01 0.02 0.01 0.00 0.00 0.00 0.00 0.00 0.00 0.00 0.00 0.00 0.00 0.01 0.01
0.00 0.00 0.00 0.00 0.00 0.00 0.00 0.00 0.00 0.00 0.00 0.00 0.00 0.00 0.00 0.00 0.00 0.00 0.00 0.00 0.00 0.00 0.00 0.00 0.00 0.00 0.00 0.00 0.00 0.01 0.01 0.00 0.00 0.00 0.00 0.00 0.00 0.01 0.01 0.01 0.01 0.02 0.02
0.00 0.00 0.00 0.00 0.00 0.00 0.00 0.00 0.00 0.00 0.00 0.00 0.00 0.00 0.00 0.00 0.00 0.00 0.00 0.00 0.00 0.00 0.00 0.00 0.00 0.00 0.00 0.00 0.00 0.00 0.01 0.01 0.00 0.00 0.00 0.00 0.00 0.01 0.01 0.01 0.02 0.02 0.03
0.00 0.00 0.00 0.00 0.00 0.00 0.00 0.00 0.00 0.00 0.00 0.00 0.00 0.00 0.00 0.00 0.00 0.00 0.00 0.00 0.00 0.00 0.00 0.00 0.00 0.00 0.00 0.00 0.00 0.00 0.00 0.01 0.01 0.00 0.00 0.00 0.00 0.00 0.01 0.01 0.02 0.03 0.03
0.00 0.00 0.00 0.00 0.00 0.00 0.00 0.00 0.00 0.00 0.00 0.00 0.00 0.00 0.00 0.00 0.00 0.00 0.00 0.00 0.00 0.00 0.00 0.00 0.00 0.00 0.00 0.00 0.00 0.00 0.00 0.00 0.01 0.00 0.00 0.00 0.00 0.00 0.01 0.01 0.02 0.03 0.02
0.00 0.00 0.00 0.00 0.00 0.00 0.00 0.00 0.00 0.00 0.00 0.00 0.00 0.00 0.00 0.00 0.00 0.00 0.00 0.00 0.00 0.00 0.00 0.00 0.00 0.00 0.00 0.00 0.00 0.00 0.00 0.00 0.00 0.01 0.01 0.00 0.00 0.00 0.01 0.01 0.01 0.02 0.03
0.00 0.00 0.00 0.00 0.00 0.00 0.00 0.00 0.00 0.00 0.00 0.00 0.00 0.00 0.00 0.00 0.00 0.00 0.00 0.00 0.00 0.00 0.00 0.00 0.00 0.00 0.00 0.00 0.00 0.00 0.00 0.00 0.00 0.00 0.01 0.01 0.01 0.01 0.01 0.01 0.01 0.01 0.01
0.00 0.00 0.00 0.00 0.00 0.00 0.00 0.00 0.00 0.00 0.00 0.00 0.00 0.00 0.00 0.00 0.00 0.00 0.00 0.00 0.00 0.00 0.00 0.00 0.00 0.00 0.00 0.00 0.00 0.00 0.00 0.00 0.00 0.00 0.00 0.00 0.01 0.01 0.01 0.01 0.01 0.01 0.01
MSLP
1017.72 1017.93 1018.13 1018.28 1018.39 1018.47 1018.55 1018.63 1018.76 1018.92 1019.12 1019.33 1019.52 1019.66 1019.73 1019.73 1019.67 1019.55 1019.41 1019.28 1019.18 1019.13 1019.11 1019.12 1019.14 1019.14 1019.11 1019.04 1018.94 1018.82 1018.69 1018.56 1018.45 1018.35 1018.24 1018.11 1017.94 1017.71 1017.42 1017.08 1016.71 1016.35 1016.02
1017.75 1017.92 1018.09 1018.22 1018.31 1018.39 1018.48 1018.60 1018.77 1018.99 1019.25 1019.51 1019.73 1019.89 1019.95 1019.92 1019.81 1019.64 1019.46 1019.30 1019.18 1019.13 1019.14 1019.19 1019.25 1019.30 1019.32 1019.31 1019.25 1019.16 1019.07 1018.98 1018.90 1018.84 1018.77 1018.67 1018.53 1018.32 1018.04 1017.70 1017.31 1016.92 1016.55
1017.74 1017.88 1018.00 1018.10 1018.19 1018.26 1018.37 1018.52 1018.74 1019.02 1019.33 1019.64 1019.90 1020.08 1020.14 1020.09 1019.95 1019.74 1019.52 1019.33 1019.20 1019.14 1019.15 1019.22 1019.31 1019.40 1019.45 1019.47 1019.44 1019.39 1019.33 1019.28 1019.25 1019.24 1019.23 1019.19 1019.10 1018.95 1018.71 1018.39 1018.02 1017.62 1017.23
1017.74 1017.84 1017.93 1018.01 1018.08 1018.16 1018.28 1018.47 1018.72 1019.05 1019.40 1019.75 1020.05 1020.25 1020.32 1020.27 1020.11 1019.89 1019.65 1019.43 1019.28 1019.20 1019.21 1019.28 1019.37 1019.46 1019.53 1019.56 1019.56 1019.53 1019.51 1019.50 1019.52 1019.55 1019.60 1019.63 1019.61 1019.52 1019.35 1019.09 1018.75 1018.36 1017.96
1017.80 1017.88 1017.95 1018.02 1018.09 1018.17 1018.29 1018.49 1018.77 1019.12 1019.50 1019.88 1020.20 1020.43 1020.52 1020.49 1020.34 1020.12 1019.87 1019.64 1019.47 1019.38 1019.36 1019.41 1019.48 1019.56 1019.62 1019.65 1019.65 1019.64 1019.63 1019.65 1019.71 1019.79 1019.89 1019.98 1020.03 1020.01 1019.90 1019.69 1019.40 1019.04 1018.64
1017.94 1018.03 1018.11 1018.18 1018.25 1018.33 1018.45 1018.65 1018.92 1019.27 1019.66 1020.05 1020.39 1020.64 1020.76 1020.76 1020.64 1020.44 1020.21 1019.98 1019.80 1019.69 1019.64 1019.65 1019.69 1019.73 1019.77 1019.78 1019.77 1019.76 1019.76 1019.79 1019.87 1019.98 1020.10 1020.23 1020.32 1020.35 1020.29 1020.14 1019.89 1019.56 1019.17
1018.19 1018.30 1018.41 1018.50 1018.58 1018.66 1018.78 1018.95 1019.21 1019.53 1019.90 1020.28 1020.62 1020.89 1021.05 1021.08 1021.01 1020.85 1020.66 1020.45 1020.27 1020.14 1020.06 1020.02 1020.01 1020.01 1020.00 1019.98 1019.95 1019.93 1019.93 1019.96 1020.03 1020.13 1020.26 1020.39 1020.50 1020.55 1020.51 1020.39 1020.17 1019.87 1019.50
1018.50 1018.68 1018.84 1018.97 1019.07 1019.15 1019.25 1019.40 1019.62 1019.90 1020.23 1020.58 1020.92 1021.19 1021.38 1021.46 1021.45 1021.35 1021.19 1021.01 1020.84 1020.70 1020.59 1020.51 1020.44 1020.39 1020.34 1020.29 1020.23 1020.19 1020.16 1020.17 1020.22 1020.30 1020.40 1020.50 1020.58 1020.61 1020.58 1020.46 1020.26 1019.98 1019.62
1018.85 1019.10 1019.33 1019.51 1019.64 1019.74 1019.83 1019.95 1020.12 1020.35 1020.64 1020.95 1021.27 1021.55 1021.76 1021.89 1021.92 1021.88 1021.77 1021.63 1021.47 1021.32 1021.18 1021.06 1020.95 1020.86 1020.77 1020.68 1020.60 1020.53 1020.49 1020.47 1020.48 1020.51 1020.55 1020.60 1020.63 1020.62 1020.55 1020.42 1020.22 1019.95 1019.62
1019.14 1019.49 1019.80 1020.04 1020.22 1020.34 1020.44 1020.54 1020.67 1020.86 1021.10 1021.38 1021.67 1021.94 1022.17 1022.33 1022.41 1022.42 1022.36 1022.25 1022.10 1021.95 1021.79 1021.64 1021.50 1021.37 1021.25 1021.15 1021.05 1020.96 1020.90 1020.85 1020.81 1020.79 1020.77 1020.74 1020.70 1020.63 1020.52 1020.37 1020.17 1019.90 1019.59
1019.33 1019.77 1020.17 1020.48 1020.72 1020.88 1021.00 1021.10 1021.22 1021.38 1021.59 1021.83 1022.10 1022.36 1022.59 1022.77 1022.89 1022.93 1022.90 1022.81 1022.69 1022.53 1022.37 1022.20 1022.04 1021.89 1021.76 1021.65 1021.54 1021.45 1021.37 1021.30 1021.22 1021.15 1021.06 1020.97 1020.86 1020.73 1020.57 1020.39 1020.18 1019.93 1019.63
1019.36 1019.89 1020.36 1020.76 1021.06 1021.29 1021.45 1021.58 1021.72 1021.88 1022.06 1022.29 1022.53 1022.77 1023.00 1023.19 1023.31 1023.37 1023.37 1023.30 1023.19 1023.04 1022.88 1022.71 1022.54 1022.39 1022.26 1022.15 1022.05 1021.97 1021.88 1021.79 1021.69 1021.57 1021.43 1021.28 1021.11 1020.93 1020.74 1020.54 1020.32 1020.08 1019.80
1019.19 1019.79 1020.35 1020.82 1021.21 1021.51 1021.74 1021.94 1022.11 1022.29 1022.48 1022.70 1022.93 1023.15 1023.36 1023.54 1023.67 1023.74 1023.74 1023.69 1023.59 1023.46 1023.30 1023.14 1022.98 1022.84 1022.72 1022.62 1022.54 1022.46 1022.38 1022.28 1022.16 1022.01 1021.84 1021.65 1021.44 1021.22 1021.00 1020.79 1020.57 1020.34 1020.09
1018.82 1019.48 1020.10 1020.66 1021.13 1021.53 1021.85 1022.13 1022.36 1022.59 1022.81 1023.03 1023.25 1023.46 1023.66 1023.82 1023.94 1024.00 1024.02 1023.98 1023.90 1023.78 1023.64 1023.49 1023.35 1023.23 1023.12 1023.04 1022.96 1022.89 1022.81 1022.70 1022.57 1022.41 1022.22 1022.00 1021.77 1021.53 1021.30 1021.08 1020.86 1020.64 1020.41
1018.26 1018.97 1019.64 1020.27 1020.84 1021.33 1021.76 1022.13 1022.45 1022.74 1023.00 1023.24 1023.46 1023.67 1023.85 1024.00 1024.10 1024.17 1024.19 1024.17 1024.11 1024.02 1023.90 1023.78 1023.65 1023.54 1023.45 1023.36 1023.29 1023.21 1023.13 1023.01 1022.87 1022.70 1022.49 1022.26 1022.02 1021.78 1021.54 1021.32 1021.10 1020.89 1020.66
1017.53 1018.26 1018.99 1019.69 1020.34 1020.93 1021.46 1021.94 1022.35 1022.71 1023.03 1023.30 1023.54 1023.75 1023.92 1024.06 1024.17 1024.24 1024.28 1024.28 1024.24 1024.18 1024.09 1023.99 1023.88 1023.78 1023.68 1023.59 1023.50 1023.40 1023.29 1023.17 1023.01 1022.82 1022.61 1022.37 1022.13 1021.88 1021.64 1021.41 1021.20 1020.98 1020.75
1016.66 1017.42 1018.19 1018.94 1019.67 1020.36 1020.99 1021.57 1022.07 1022.51 1022.89 1023.20 1023.47 1023.69 1023.87 1024.02 1024.14 1024.23 1024.29 1024.32 1024.32 1024.29 1024.23 1024.14 1024.04 1023.93 1023.82 1023.69 1023.57 1023.44 1023.30 1023.14 1022.96 1022.76 1022.53 1022.29 1022.05 1021.80 1021.56 1021.32 1021.09 1020.86 1020.61
1015.70 1016.48 1017.27 1018.08 1018.88 1019.65 1020.37 1021.04 1021.63 1022.15 1022.59 1022.96 1023.26 1023.51 1023.71 1023.88 1024.03 1024.14 1024.24 1024.30 1024.34 1024.34 1024.30 1024.23 1024.12 1023.99 1023.85 1023.68 1023.51 1023.33 1023.14 1022.94 1022.74 1022.51 1022.28 1022.04 1021.79 1021.53 1021.28 1021.03 1020.78 1020.52 1020.25
1014.72 1015.50 1016.32 1017.16 1018.01 1018.85 1019.65 1020.40 1021.08 1021.67 1022.17 1022.60 1022.95 1023.23 1023.48 1023.68 1023.86 1024.01 1024.14 1024.25 1024.31 1024.34 1024.32 1024.24 1024.12 1023.96 1023.77 1023.56 1023.33 1023.09 1022.86 1022.62 1022.38 1022.14 1021.90 1021.66 1021.41 1021.15 1020.88 1020.61 1020.33 1020.03 1019.72
1013.75 1014.53 1015.37 1016.24 1017.14 1018.03 1018.89 1019.71 1020.45 1021.11 1021.68 1022.16 1022.57 1022.90 1023.19 1023.44 1023.66 1023.85 1024.02 1024.15 1024.24 1024.28 1024.26 1024.18 1024.03 1023.84 1023.60 1023.33 1023.05 1022.76 1022.48 1022.21 1021.96 1021.71 1021.47 1021.22 1020.97 1020.71 1020.43 1020.14 1019.82 1019.48 1019.12
1012.87 1013.65 1014.49 1015.38 1016.30 1017.23 1018.14 1019.01 1019.81 1020.53 1021.16 1021.70 1022.16 1022.55 1022.88 1023.17 1023.43 1023.66 1023.86 1024.01 1024.12 1024.16 1024.13 1024.02 1023.85 1023.62 1023.33 1023.02 1022.69 1022.37 1022.06 1021.78 1021.51 1021.26 1021.03 1020.79 1020.54 1020.28 1019.99 1019.67 1019.31 1018.93 1018.52
1012.12 1012.89 1013.73 1014.62 1015.55 1016.50 1017.43 1018.34 1019.18 1019.95 1020.63 1021.23 1021.74 1022.18 1022.56 1022.90 1023.19 1023.44 1023.65 1023.81 1023.91 1023.94 1023.90 1023.77 1023.56 1023.30 1022.98 1022.64 1022.29 1021.94 1021.62 1021.33 1021.07 1020.84 1020.61 1020.39 1020.15 1019.88 1019.58 1019.23 1018.84 1018.41 1017.95
1011.52 1012.27 1013.09 1013.97 1014.89 1015.84 1016.79 1017.71 1018.58 1019.39 1020.11 1020.75 1021.31 1021.80 1022.22 1022.58 1022.90 1023.16 1023.38 1023.53 1023.62 1023.63 1023.56 1023.40 1023.18 1022.89 1022.55 1022.19 1021.83 1021.49 1021.17 1020.89 1020.64 1020.42 1020.21 1020.00 1019.77 1019.50 1019.18 1018.81 1018.38 1017.90 1017.38
1011.07 1011.78 1012.57 1013.41 1014.32 1015.25 1016.19 1017.12 1018.01 1018.83 1019.59 1020.26 1020.86 1021.37 1021.82 1022.21 1022.54 1022.80 1023.01 1023.15 1023.21 1023.20 1023.11 1022.93 1022.69 1022.39 1022.05 1021.69 1021.33 1020.99 1020.69 1020.42 1020.19 1019.98 1019.79 1019.58 1019.35 1019.07 1018.73 1018.33 1017.86 1017.34 1016.77
1010.72 1011.39 1012.13 1012.93 1013.80 1014.70 1015.62 1016.53 1017.42 1018.25 1019.02 1019.72 1020.34 1020.88 1021.35 1021.75 1022.08 1022.34 1022.53 1022.65 1022.70 1022.67 1022.55 1022.37 1022.12 1021.81 1021.47 1021.12 1020.78 1020.46 1020.16 1019.90 1019.68 1019.47 1019.27 1019.05 1018.81 1018.51 1018.15 1017.71 1017.21 1016.65 1016.04
1010.41 1011.03 1011.72 1012.47 1013.29 1014.15 1015.03 1015.92 1016.79 1017.62 1018.39 1019.10 1019.73 1020.29 1020.77 1021.17 1021.50 1021.76 1021.95 1022.06 1022.09 1022.04 1021.92 1021.73 1021.47 1021.17 1020.85 1020.50 1020.17 1019.85 1019.56 1019.29 1019.05 1018.83 1018.61 1018.37 1018.10 1017.77 1017.38 1016.92 1016.38 1015.79 1015.14
Thickness
5743 5745 5746 5745 5743 5741 5738 5736 5733 5730 5728 5725 5722 5720 5717 5716 5715 5714 5713 5711 5710 5708 5707 5705 5703 5701 5698 5696 5695 5694 5692 5690 5690 5689 5688 5689 5691 5692 5694 5696 5699 5701 5704
5738 5740 5741 5741 5740 5738 5736 5734 5732 5729 5727 5725 5722 5720 5717 5715 5714 5713 5712 5710 5709 5707 5706 5703 5701 5700 5698 5696 5694 5692 5689 5688 5687 5684 5682 5680 5683 5687 5690 5692 5695 5697 5701
5734 5736 5737 5737 5737 5735 5734 5733 5730 5728 5726 5724 5721 5718 5716 5714 5712 5711 5710 5709 5708 5707 5705 5703 5701 5699 5697 5694 5693 5691 5689 5685 5685 5683 5680 5676 5673 5677 5684 5688 5690 5693 5697
5734 5734 5735 5734 5735 5734 5734 5732 5729 5726 5724 5723 5720 5717 5712 5709 5708 5708 5708 5708 5707 5706 5704 5703 5701 5699 5696 5694 5692 5690 5688 5686 5682 5682 5680 5679 5677 5675 5676 5683 5687 5690 5693
5732 5733 5734 5734 5734 5734 5732 5730 5727 5725 5723 5721 5719 5715 5712 5709 5708 5708 5707 5707 5706 5705 5704 5702 5700 5698 5696 5694 5692 5690 5688 5685 5683 5680 5679 5678 5677 5676 5674 5674 5680 5685 5689
5731 5732 5732 5732 5731 5731 5729 5727 5725 5722 5721 5719 5717 5715 5712 5709 5708 5706 5705 5704 5704 5703 5703 5701 5699 5697 5696 5694 5692 5690 5688 5685 5683 5681 5679 5677 5676 5674 5673 5672 5675 5678 5685
5728 5728 5728 5728 5727 5727 5726 5725 5723 5720 5718 5717 5715 5713 5711 5709 5707 5705 5703 5702 5701 5701 5700 5700 5698 5697 5695 5693 5692 5689 5687 5685 5683 5681 5679 5678 5676 5676 5675 5674 5674 5676 5681
5725 5726 5726 5726 5725 5725 5724 5723 5721 5719 5717 5715 5714 5712 5711 5708 5706 5705 5703 5702 5700 5700 5700 5698 5697 5695 5694 5692 5691 5688 5687 5685 5683 5682 5680 5679 5678 5677 5676 5675 5674 5674 5676
5723 5724 5724 5724 5724 5723 5723 5722 5720 5718 5716 5714 5713 5711 5709 5707 5706 5704 5703 5701 5700 5700 5699 5697 5696 5694 5692 5690 5689 5687 5685 5684 5683 5681 5680 5679 5678 5678 5677 5676 5675 5673 5672
5721 5721 5721 5721 5721 5722 5721 5720 5719 5717 5715 5713 5712 5710 5708 5706 5705 5703 5701 5700 5699 5698 5697 5695 5693 5691 5690 5688 5686 5685 5684 5682 5681 5680 5679 5679 5678 5677 5677 5676 5674 5673 5672
5720 5719 5719 5719 5719 5719 5718 5717 5715 5714 5712 5710 5709 5707 5705 5704 5703 5701 5700 5698 5697 5696 5694 5692 5691 5688 5686 5685 5684 5682 5681 5680 5679 5678 5677 5677 5676 5675 5675 5674 5673 5672 5671
5719 5718 5717 5716 5715 5715 5714 5713 5712 5711 5709 5708 5707 5705 5703 5702 5700 5698 5697 5696 5695 5693 5691 5690 5687 5685 5684 5682 5680 5679 5679 5677 5676 5675 5675 5674 5674 5673 5672 5671 5670 5670 5669
5717 5715 5714 5713 5712 5711 5710 5710 5709 5708 5707 5706 5704 5702 5700 5698 5697 5695 5694 5693 5691 5689 5688 5686 5683 5682 5680 5679 5677 5676 5675 5674 5673 5672 5671 5670 5670 5669 5669 5668 5667 5666 5666
5716 5714 5711 5710 5709 5709 5708 5707 5706 5705 5704 5702 5700 5698 5696 5695 5693 5692 5691 5689 5687 5685 5683 5681 5679 5678 5676 5675 5674 5673 5671 5670 5669 5668 5668 5667 5666 5665 5665 5664 5663 5662 5661
5715 5714 5711 5709 5707 5706 5705 5704 5703 5701 5700 5698 5696 5693 5692 5691 5689 5688 5686 5684 5683 5681 5678 5676 5674 5673 5672 5671 5670 5669 5667 5665 5664 5663 5663 5663 5663 5662 5661 5660 5658 5657 5654
5717 5714 5711 5709 5707 5705 5703 5701 5699 5698 5696 5694 5691 5690 5688 5686 5684 5683 5681 5679 5677 5675 5673 5670 5668 5667 5667 5667 5666 5664 5661 5659 5657 5656 5656 5657 5657 5657 5656 5655 5653 5651 5648
5719 5716 5713 5710 5707 5704 5702 5699 5696 5694 5692 5689 5687 5685 5683 5681 5678 5677 5675 5672 5670 5668 5666 5664 5662 5661 5660 5661 5660 5659 5655 5653 5651 5650 5649 5650 5650 5649 5648 5647 5646 5643 5641
5720 5717 5713 5709 5705 5703 5700 5697 5693 5690 5687 5684 5682 5680 5678 5675 5672 5670 5668 5665 5663 5661 5659 5657 5655 5653 5654 5654 5653 5652 5648 5645 5643 5642 5641 5640 5640 5640 5639 5638 5637 5634 5633
5724 5719 5714 5709 5704 5700 5697 5692 5688 5685 5682 5679 5677 5674 5672 5669 5666 5664 5661 5659 5656 5654 5652 5650 5648 5646 5645 5645 5644 5643 5639 5636 5635 5634 5633 5631 5630 5631 5630 5627 5625 5624 5624
5721 5716 5711 5705 5700 5697 5693 5689 5683 5680 5677 5675 5673 5670 5667 5664 5661 5658 5655 5652 5649 5646 5644 5642 5640 5637 5636 5636 5635 5634 5630 5627 5625 5624 5623 5622 5620 5619 5618 5614 5611 5610 5611
5718 5713 5707 5702 5698 5693 5689 5684 5679 5676 5674 5671 5667 5663 5661 5658 5655 5651 5648 5645 5642 5639 5636 5633 5631 5629 5628 5627 5625 5624 5620 5617 5615 5613 5612 5611 5609 5608 5605 5603 5599 5598 5598
5713 5709 5703 5698 5693 5689 5686 5680 5675 5673 5668 5664 5660 5657 5654 5652 5649 5644 5640 5637 5633 5630 5626 5623 5621 5620 5618 5617 5615 5613 5611 5608 5604 5602 5600 5598 5597 5595 5593 5590 5588 5586 5584
5709 5704 5699 5693 5687 5684 5682 5676 5672 5667 5662 5657 5653 5649 5646 5643 5640 5636 5632 5628 5624 5620 5617 5614 5611 5609 5608 5606 5605 5603 5600 5597 5593 5591 5589 5587 5585 5582 5579 5576 5573 5571 5567
5703 5699 5693 5687 5681 5677 5675 5672 5667 5661 5656 5650 5645 5641 5638 5634 5631 5627 5624 5619 5615 5611 5608 5605 5602 5599 5597 5595 5593 5591 5588 5585 5582 5579 5577 5575 5571 5567 5564 5561 5558 5554 5550
5697 5693 5689 5683 5678 5672 5668 5664 5659 5654 5649 5643 5638 5634 5630 5626 5622 5619 5615 5612 5609 5605 5601 5597 5593 5589 5587 5586 5584 5580 5576 5572 5569 5566 5563 5559 5556 5553 5550 5546 5543 5539 5536
5690 5685 5681 5676 5671 5666 5661 5657 5652 5648 5642 5636 5630 5626 5621 5617 5613 5609 5606 5604 5601 5599 5595 5591 5587 5583 5580 5577 5573 5569 5565 5561 5557 5552 5547 5544 5540 5537 5534 5531 5529 5526 5522